sat.trackr.live / text

‹ back to catalog

STARLINK-33736

NORAD 63450 · 2025-069T

PAYLOAD ACTIVE UNKNOWN

§ Identity

Operator
Country
US
Launch date
2025-04-04
Launch site
AFWTR
Launch vehicle
Mass (kg)
RCS (m²)

Purposes: comms

External: N2YO · Heavens-Above · Gunter

§ Orbital elements

Epoch: 2026-05-24T17:14:32.572320Z

Period
93.37 min
Inclination
53.1583°
Eccentricity
0.0001281
Mean motion
15.42181458 rev/d
Perigee alt
438.8 km
Apogee alt
440.5 km
Semi-major
6,817.8 km
B*
6.8626e-4
RAAN
146.5866°
Arg perigee
92.7158°
Mean anomaly
267.3995°
Rev number
6,503

§ Raw data

STARLINK-337361 63450U 25069T   26144.71843255  .00029588  00000+0  68626-3 0  99942 63450  53.1583 146.5866 0001281  92.7158 267.3995 15.42181458 65039

JSON: /api/v1/satellites/63450 · /tle

For live sub-satellite position, see the globe view (requires WebGL).

§ Visibility from observer

Set your observer location to see the next 7 days of passes ≥ 10°. The values pass through the URL so the page stays shareable.

No JS? Fill the form by hand. The geolocation button needs JavaScript.